FW8143 Weather Reports


time (UTC)temp
C
wind
direction
speed
KPH
gust
KPH
rain 1hr
cm
rain 24hr
cm
rain mn
cm
humidity
%
barometer
mb
20260505214445 16 207 14.5 29.0 0.00 0.00 0.00 39 1016.7
20260505213939 15 222 12.9 29.0 0.00 0.00 0.00 41 1016.9
20260505213434 15 215 12.9 30.6 0.00 0.00 0.00 41 1017.0
20260505213152 16 258 16.1 30.6 0.00 0.00 0.00 40 1017.4
20260505212422 16 313 16.1 27.4 0.00 0.00 0.00 39 1017.4
20260505211922 16 217 16.1 27.4 0.00 0.00 0.00 41 1017.2
20260505211422 16 257 16.1 32.2 0.00 0.00 0.00 41 1017.4
20260505210923 15 215 16.1 32.2 0.00 0.00 0.00 42 1017.5
20260505210421 15 217 14.5 29.0 0.00 0.00 0.00 43 1017.6
20260505205922 15 250 14.5 32.2 0.00 0.00 0.00 43 1017.6
20260505205644 15 244 14.5 32.2 0.00 0.00 0.00 43 1017.7
20260505204922 15 234 14.5 25.7 0.00 0.00 0.00 44 1017.9
20260505204423 14 241 14.5 32.2 0.00 0.00 0.00 46 1017.9
20260505203921 13 233 14.5 32.2 0.00 0.00 0.00 46 1018.1
20260505203422 13 288 11.3 25.7 0.00 0.00 0.00 48 1018.1
20260505203145 13 282 11.3 25.7 0.00 0.00 0.00 47 1018.2
20260505202422 13 257 14.5 27.4 0.00 0.00 0.00 47 1018.2
20260505201922 13 273 12.9 27.4 0.00 0.00 0.00 48 1018.2
20260505201422 12 246 12.9 29.0 0.00 0.00 0.00 51 1018.1
20260505200921 12 242 12.9 29.0 0.00 0.00 0.00 50 1018.2
20260505200421 12 203 14.5 32.2 0.00 0.00 0.00 51 1018.2
20260505195920 12 237 16.1 37.0 0.00 0.00 0.00 49 1018.1
20260505195420 12 272 16.1 37.0 0.00 0.00 0.00 49 1018.1
20260505194920 12 232 16.1 38.6 0.00 0.00 0.00 50 1018.1
20260505194420 13 266 14.5 38.6 0.00 0.00 0.00 49 1018.1
20260505193920 13 255 14.5 25.7 0.00 0.00 0.00 48 1018.1
20260505193645 13 259 14.5 27.4 0.00 0.00 0.00 48 1018.1
20260505193144 13 257 14.5 27.4 0.00 0.00 0.00 47 1018.0
20260505192419 13 240 16.1 25.7 0.00 0.00 0.00 47 1018.0
20260505191919 13 240 16.1 29.0 0.00 0.00 0.00 46 1018.1
20260505191417 13 265 16.1 29.0 0.00 0.00 0.00 45 1018.0
20260505190918 13 235 14.5 30.6 0.00 0.00 0.00 44 1018.1
20260505190635 13 209 16.1 30.6 0.00 0.00 0.00 45 1018.1
20260505185916 14 185 16.1 29.0 0.00 0.00 0.00 44 1018.1
20260505185415 14 234 14.5 27.4 0.00 0.00 0.00 41 1018.0
20260505184916 14 214 16.1 30.6 0.00 0.00 0.00 40 1017.9
20260505184641 15 197 12.9 30.6 0.00 0.00 0.00 39 1018.0
20260505183915 15 281 11.3 22.5 0.00 0.00 0.00 38 1018.1
20260505183415 15 214 12.9 27.4 0.00 0.00 0.00 38 1018.1
20260505183136 15 254 11.3 27.4 0.00 0.00 0.00 36 1018.1
20260505182723 16 256 11.3 27.4 0.00 0.00 0.00 35 1018.0
20260505182619 15 244 11.3 25.7 0.00 0.00 0.00 37 1017.9
20260505181412 15 200 9.7 25.7 0.00 0.00 0.00 39 1017.7
20260505180914 14 269 9.7 19.3 0.00 0.00 0.00 39 1017.9
20260505180638 13 171 9.7 19.3 0.00 0.00 0.00 40 1018.0
20260505175911 13 227 8.0 16.1 0.00 0.00 0.00 41 1018.0
20260505175412 13 173 8.0 24.1 0.00 0.00 0.00 41 1018.1
20260505174913 13 287 8.0 24.1 0.00 0.00 0.00 40 1018.5
20260505174412 13 198 6.4 22.5 0.00 0.00 0.00 41 1018.6
20260505173911 13 165 6.4 14.5 0.00 0.00 0.00 41 1018.6
20260505173849 13 310 4.8 14.5 0.00 0.00 0.00 41 1018.6
20260505172908 13 115 6.4 16.1 0.00 0.00 0.00 40 1018.5
20260505172406 13 234 8.0 16.1 0.00 0.00 0.00 40 1018.5
20260505171900 12 231 4.8 12.9 0.00 0.00 0.00 41 1018.5
20260505171355 12 295 6.4 17.7 0.00 0.00 0.00 42 1018.6
20260505171110 12 263 6.4 17.7 0.00 0.00 0.00 43 1018.6
20260505170343 12 221 4.8 19.3 0.00 0.00 0.00 43 1018.6
20260505165836 11 161 8.0 19.3 0.00 0.00 0.00 43 1018.7
20260505165331 11 271 8.0 16.1 0.00 0.00 0.00 44 1018.7
20260505164825 11 200 8.0 16.1 0.00 0.00 0.00 45 1018.9
20260505164318 11 238 6.4 16.1 0.00 0.00 0.00 46 1018.9
20260505163812 11 259 8.0 16.1 0.00 0.00 0.00 47 1019.0
20260505163307 10 211 9.7 17.7 0.00 0.00 0.00 47 1019.0
20260505162800 10 232 8.0 17.7 0.00 0.00 0.00 47 1019.0
20260505162255 10 259 6.4 16.1 0.00 0.00 0.00 48 1019.0
20260505161749 10 271 8.0 19.3 0.00 0.00 0.00 47 1019.0
20260505161505 10 180 9.7 24.1 0.00 0.00 0.00 49 1019.2
20260505160737 10 286 11.3 24.1 0.00 0.00 0.00 48 1019.2
20260505160231 10 265 8.0 22.5 0.00 0.00 0.00 48 1019.2
20260505152646 9 260 4.8 14.5 0.00 0.00 0.00 49 1019.2
20260505152141 9 355 6.4 14.5 0.00 0.00 0.00 48 1019.2
20260505151635 9 227 6.4 14.5 0.00 0.00 0.00 49 1019.2
20260505151128 9 277 6.4 14.5 0.00 0.00 0.00 49 1019.2
20260505150623 9 250 8.0 19.3 0.00 0.00 0.00 49 1019.4
20260505150117 10 192 11.3 22.5 0.00 0.00 0.00 48 1019.4
20260505140511 10 17 9.7 20.9 0.00 0.00 0.00 50 1019.2
20260505124619 8 239 6.4 14.5 0.00 0.00 0.00 46 1019.5
20260505124111 8 281 6.4 12.9 0.00 0.00 0.00 46 1019.5
20260505123353 8 322 6.4 12.9 0.00 0.00 0.00 45 1019.4
20260505122853 8 17 4.8 12.9 0.00 0.00 0.00 45 1019.4
20260505122354 8 344 4.8 14.5 0.00 0.00 0.00 44 1019.4
20260505122115 8 267 8.0 19.3 0.00 0.00 0.00 44 1019.1
20260505121614 8 246 8.0 19.3 0.00 0.00 0.00 44 1019.1
20260505120851 8 317 8.0 19.3 0.00 0.00 0.00 44 1019.1
20260505120557 7 320 6.4 14.5 0.00 0.00 0.00 45 1018.9
20260505120438 7 286 8.0 19.3 0.00 0.00 0.00 44 1019.0
20260505115351 7 322 4.8 14.5 0.00 0.00 0.00 45 1018.9
20260505114851 8 304 3.2 12.9 0.00 0.00 0.00 44 1019.0
20260505114349 8 294 1.6 8.0 0.00 0.00 0.00 44 1019.1
20260505114105 8 293 1.6 9.7 0.00 0.00 0.00 44 1019.2
20260505113345 8 311 1.6 11.3 0.00 0.00 0.00 43 1019.2
20260505112845 8 279 1.6 11.3 0.00 0.00 0.00 43 1019.2
20260505112604 8 300 1.6 6.4 0.00 0.00 0.00 43 1019.2
20260505111835 8 311 1.6 4.8 0.00 0.00 0.00 43 1019.2
20260505111328 8 296 1.6 4.8 0.00 0.00 0.00 42 1019.1
20260505110822 8 355 1.6 4.8 0.00 0.00 0.00 42 1019.0
20260505110315 8 300 1.6 4.8 0.00 0.00 0.00 42 1019.0
20260505102032 9 317 3.2 8.0 0.00 0.00 0.00 40 1019.0
20260505101306 9 303 4.8 12.9 0.00 0.00 0.00 40 1019.0
20260505100806 9 293 4.8 14.5 0.00 0.00 0.00 40 1018.9
20260505100304 9 298 3.2 14.5 0.00 0.00 0.00 40 1019.0
20260505095805 10 322 3.2 12.9 0.00 0.00 0.00 41 1018.9
20260505095301 10 0 3.2 12.9 0.00 0.00 0.00 41 1018.9
20260505094800 10 302 3.2 11.3 0.00 0.00 0.00 40 1019.0
20260505094522 10 302 1.6 11.3 0.00 0.00 0.00 40 1019.0
20260505093800 10 301 1.6 6.4 0.00 0.00 0.00 40 1019.0
20260505093301 10 297 4.8 14.5 0.00 0.00 0.00 39 1019.0
20260505093024 10 254 6.4 14.5 0.00 0.00 0.00 39 1019.0
20260505092301 10 320 4.8 11.3 0.00 0.00 0.00 39 1018.9
20260505091800 10 309 4.8 20.9 0.00 0.00 0.00 38 1018.9
20260505091303 10 208 6.4 20.9 0.00 0.00 0.00 37 1018.9
20260505090801 10 271 4.8 12.9 0.00 0.00 0.00 37 1019.0
20260505090301 10 284 4.8 12.9 0.00 0.00 0.00 36 1019.0
20260505085801 10 323 4.8 12.9 0.00 0.00 0.00 36 1019.1
20260505085301 10 355 3.2 12.9 0.00 0.00 0.00 36 1019.2
20260505084800 10 308 1.6 6.4 0.00 0.00 0.00 36 1019.2
20260505084300 10 311 1.6 6.4 0.00 0.00 0.00 36 1019.2
20260505083801 11 332 1.6 6.4 0.00 0.00 0.00 35 1019.4
20260505083259 11 355 1.6 4.8 0.00 0.00 0.00 36 1019.5
20260505082758 11 278 0.0 4.8 0.00 0.00 0.00 35 1019.8
20260505082256 11 291 1.6 8.0 0.00 0.00 0.00 35 1020.0
20260505081749 11 289 4.8 12.9 0.00 0.00 0.00 35 1020.0
20260505081243 11 292 6.4 12.9 0.00 0.00 0.00 34 1020.1
20260505081003 11 292 8.0 16.1 0.00 0.00 0.00 34 1020.0
20260505080231 11 320 8.0 16.1 0.00 0.00 0.00 34 1019.9
20260505075726 11 339 8.0 16.1 0.00 0.00 0.00 34 1019.8
20260505075703 11 321 9.7 17.7 0.00 0.00 0.00 34 1019.9
20260505074714 11 304 9.7 20.9 0.00 0.00 0.00 34 1020.0
20260505074208 11 283 8.0 20.9 0.00 0.00 0.00 33 1020.0
20260505073702 11 286 8.0 20.9 0.00 0.00 0.00 33 1019.8
20260505073156 11 319 9.7 24.1 0.00 0.00 0.00 33 1019.6
20260505072649 11 284 9.7 24.1 0.00 0.00 0.00 33 1019.6
20260505072144 11 309 8.0 20.9 0.00 0.00 0.00 33 1019.5
20260505071638 12 355 6.4 14.5 0.00 0.00 0.00 33 1019.4
20260505071132 12 344 8.0 24.1 0.00 0.00 0.00 33 1019.4
20260505070625 12 293 8.0 24.1 0.00 0.00 0.00 33 1019.5
20260505070120 12 340 6.4 19.3 0.00 0.00 0.00 33 1019.6
20260505065614 12 310 4.8 19.3 0.00 0.00 0.00 33 1019.9
20260505065108 12 312 4.8 19.3 0.00 0.00 0.00 33 1019.6
20260505064602 12 276 4.8 14.5 0.00 0.00 0.00 33 1019.8
20260505064056 12 309 4.8 14.5 0.00 0.00 0.00 33 1019.5
20260505063550 12 280 6.4 16.1 0.00 0.00 0.00 33 1019.5
20260505063043 12 258 6.4 17.7 0.00 0.00 0.00 33 1019.6
20260505062537 12 252 6.4 17.7 0.00 0.00 0.00 33 1019.6
20260505062031 12 266 6.4 17.7 0.00 0.00 0.00 33 1019.6
20260505061530 12 217 8.0 17.7 0.00 0.00 0.00 33 1019.6
20260505061030 12 239 9.7 19.3 0.00 0.00 0.00 33 1019.5
20260505060531 12 228 11.3 19.3 0.00 0.00 0.00 33 1019.6
20260505060031 12 277 9.7 22.5 0.00 0.00 0.00 33 1019.8
20260505055528 12 270 9.7 22.5 0.00 0.00 0.00 33 1019.9
20260505055250 12 300 6.4 20.9 0.00 0.00 0.00 33 1019.8
20260505054848 12 265 6.4 20.9 0.00 0.00 0.00 33 1019.6
20260505054747 12 261 6.4 20.9 0.00 0.00 0.00 33 1019.6
20260505053529 12 268 3.2 14.5 0.00 0.00 0.00 33 1019.5
20260505053029 12 253 1.6 4.8 0.00 0.00 0.00 33 1019.5
20260505052530 13 291 1.6 8.0 0.00 0.00 0.00 34 1019.5
20260505052024 13 269 1.6 8.0 0.00 0.00 0.00 34 1019.5
20260505051524 13 284 1.6 6.4 0.00 0.00 0.00 33 1019.4
20260505051025 13 36 3.2 6.4 0.00 0.00 0.00 33 1019.4
20260505050524 13 332 3.2 8.0 0.00 0.00 0.00 33 1019.5
20260505050247 13 346 3.2 8.0 0.00 0.00 0.00 32 1019.6
20260505041522 13 323 8.0 16.1 0.00 0.00 0.00 31 1019.6
20260505041022 13 302 6.4 16.1 0.00 0.00 0.00 30 1019.6
20260505040523 13 300 6.4 16.1 0.00 0.00 0.00 30 1019.6
20260505040023 13 323 8.0 16.1 0.00 0.00 0.00 29 1019.8
20260505035522 13 15 8.0 17.7 0.00 0.00 0.00 29 1019.8
20260505035023 13 333 8.0 17.7 0.00 0.00 0.00 29 1019.8
20260505034523 13 315 6.4 17.7 0.00 0.00 0.00 28 1019.8
20260505034022 13 355 6.4 19.3 0.00 0.00 0.00 28 1019.6
20260505033520 13 315 6.4 19.3 0.00 0.00 0.00 27 1019.6
20260505033021 13 331 8.0 19.3 0.00 0.00 0.00 27 1019.5
20260505032518 14 303 9.7 22.5 0.00 0.00 0.00 27 1019.5
20260505032019 14 320 9.7 22.5 0.00 0.00 0.00 27 1019.4
20260505031740 14 317 8.0 17.7 0.00 0.00 0.00 26 1019.2
20260505031505 14 300 8.0 17.7 0.00 0.00 0.00 26 1019.1
20260505030519 14 310 9.7 17.7 0.00 0.00 0.00 25 1019.1
20260505030018 14 310 9.7 24.1 0.00 0.00 0.00 25 1019.0
20260505025519 14 315 9.7 29.0 0.00 0.00 0.00 24 1019.0
20260505025018 15 315 9.7 29.0 0.00 0.00 0.00 24 1019.0
20260505024518 15 313 9.7 20.9 0.00 0.00 0.00 24 1018.9
20260505024020 15 309 9.7 22.5 0.00 0.00 0.00 24 1018.7
20260505023517 15 293 9.7 22.5 0.00 0.00 0.00 24 1018.9
20260505023017 15 325 8.0 17.7 0.00 0.00 0.00 23 1018.7
20260505022512 15 281 9.7 20.9 0.00 0.00 0.00 23 1018.7
20260505022005 15 271 9.7 20.9 0.00 0.00 0.00 23 1018.7
20260505021723 15 338 11.3 29.0 0.00 0.00 0.00 22 1018.7
20260505020953 15 289 11.3 29.0 0.00 0.00 0.00 22 1018.7
20260505020447 15 315 12.9 35.4 0.00 0.00 0.00 22 1018.6
20260505015942 15 296 14.5 35.4 0.00 0.00 0.00 22 1018.7
20260505015436 15 336 11.3 25.7 0.00 0.00 0.00 21 1018.6
20260505014929 15 312 9.7 25.7 0.00 0.00 0.00 21 1018.6
20260505014423 16 273 14.5 25.7 0.00 0.00 0.00 21 1018.5
20260505013917 16 269 14.5 27.4 0.00 0.00 0.00 21 1018.4
20260505013411 16 261 14.5 27.4 0.00 0.00 0.00 21 1018.2
20260505013129 16 247 14.5 27.4 0.00 0.00 0.00 20 1018.2
20260505012359 16 263 12.9 29.0 0.00 0.00 0.00 20 1018.1
20260505011853 16 293 12.9 29.0 0.00 0.00 0.00 20 1018.2
20260505011347 16 256 11.3 25.7 0.00 0.00 0.00 20 1018.1
20260505010841 16 254 12.9 37.0 0.00 0.00 0.00 20 1018.2
20260505010335 16 285 16.1 37.0 0.00 0.00 0.00 20 1018.1
20260505005829 16 285 19.3 35.4 0.00 0.00 0.00 20 1018.2
20260505005323 16 208 17.7 35.4 0.00 0.00 0.00 20 1018.4
20260505004818 16 254 14.5 37.0 0.00 0.00 0.00 19 1018.4
20260505004311 16 294 16.1 37.0 0.00 0.00 0.00 19 1018.4
20260505004029 16 238 14.5 32.2 0.00 0.00 0.00 20 1018.5
20260505003754 16 293 12.9 32.2 0.00 0.00 0.00 20 1018.5
20260505002753 16 283 12.9 25.7 0.00 0.00 0.00 20 1018.5
20260505002248 17 235 14.5 25.7 0.00 0.00 0.00 20 1018.5
20260505001742 17 309 16.1 32.2 0.00 0.00 0.00 19 1018.4
20260505001236 17 275 14.5 38.6 0.00 0.00 0.00 20 1018.5
20260505000729 17 265 11.3 38.6 0.00 0.00 0.00 20 1018.6
20260505000448 17 265 11.3 25.7 0.00 0.00 0.00 21 1018.6
20260504235717 17 186 14.5 32.2 0.00 0.00 0.00 20 1018.6
20260504235211 17 344 17.7 37.0 0.00 0.00 0.00 20 1018.7
20260504234705 17 256 14.5 37.0 0.00 0.00 0.00 20 1018.7
20260504234428 17 321 11.3 27.4 0.00 0.00 0.00 21 1018.7
20260504233653 17 266 14.5 33.8 0.00 0.00 0.00 21 1018.7
20260504233147 17 255 16.1 37.0 0.00 0.00 0.00 21 1018.6
20260504232641 17 262 12.9 37.0 0.00 0.00 0.00 21 1018.7
20260504232353 17 256 14.5 29.0 0.00 0.00 0.00 21 1018.6
20260504231629 17 250 12.9 25.7 0.00 0.00 0.00 21 1018.6
20260504231123 17 238 9.7 22.5 0.00 0.00 0.00 21 1018.6
20260504230842 17 355 12.9 27.4 0.00 0.00 0.00 21 1018.9
20260504230111 17 254 19.3 38.6 0.00 0.00 0.00 21 1019.1
20260504230047 17 325 20.9 45.1 0.00 0.00 0.00 21 1019.1
20260504225059 17 243 17.7 45.1 0.00 0.00 0.00 21 1019.1
20260504224553 17 313 14.5 37.0 0.00 0.00 0.00 21 1019.1
20260504224048 17 328 11.3 37.0 0.00 0.00 0.00 21 1019.0
20260504223541 17 243 14.5 37.0 0.00 0.00 0.00 20 1019.1
20260504223035 17 84 17.7 37.0 0.00 0.00 0.00 20 1019.1
20260504222530 17 238 17.7 30.6 0.00 0.00 0.00 20 1019.2
20260504222023 17 324 17.7 33.8 0.00 0.00 0.00 19 1019.4
20260504221517 17 306 14.5 33.8 0.00 0.00 0.00 19 1019.2
20260504221237 17 263 16.1 38.6 0.00 0.00 0.00 19 1019.4
20260504220506 17 299 17.7 38.6 0.00 0.00 0.00 17 1019.4
20260504220221 17 344 16.1 40.2 0.00 0.00 0.00 17 1019.5
20260504215453 18 200 19.3 40.2 0.00 0.00 0.00 17 1019.5
20260504214947 18 250 19.3 37.0 0.00 0.00 0.00 17 1019.5